Wind_Speed
24 24 24 24 24 24 24 25 25 25 25 25 25 24 24 24 23 24 24 24 24 24 24 24 24 24 24 25 26 26 26 26 26 25 26 26 26 27
23 23 23 23 23 23 22 22 22 23 23 23 23 23 23 23 23 24 24 23 23 23 23 23 23 23 24 25 25 25 26 26 26 25 26 26 26 27
20 20 21 21 22 22 22 21 21 22 22 21 21 22 23 22 22 23 23 23 23 22 22 22 23 23 24 24 24 25 25 26 26 26 26 26 26 26
19 19 19 20 20 20 20 21 21 21 21 21 21 21 22 22 22 22 21 21 22 22 22 22 22 22 22 22 23 23 24 25 25 25 26 26 26 26
18 18 18 19 20 19 19 20 20 20 20 20 20 21 21 22 22 22 22 21 21 21 21 21 21 22 22 22 22 22 23 24 25 25 25 25 26 26
15 16 17 17 18 19 19 19 19 20 20 20 20 20 20 21 21 22 21 21 21 21 21 21 21 21 21 22 22 22 23 23 24 24 24 25 25 26
13 13 14 15 16 17 18 18 18 19 19 20 19 19 19 20 20 21 20 20 20 20 20 20 20 20 21 21 21 22 22 23 23 23 23 24 24 25
10 10 11 12 13 15 16 17 18 18 19 19 19 19 18 18 19 19 19 18 18 19 19 19 19 19 20 20 20 20 21 21 21 22 22 23 23 23
9 9 10 10 11 12 13 15 15 16 17 17 18 17 17 17 17 17 17 17 17 17 17 17 18 18 19 19 20 20 20 20 20 20 21 22 22 22
8 8 8 9 10 10 11 12 13 14 15 15 15 16 16 15 15 15 15 16 15 15 16 16 17 18 18 19 20 20 20 20 21 21 21 22 22 23
6 6 6 6 7 8 9 10 11 11 12 12 13 13 13 13 13 14 14 14 15 15 15 16 16 17 18 19 19 20 20 21 21 21 21 22 22 22
5 5 5 5 6 6 7 8 9 10 10 11 11 11 11 11 12 12 13 14 14 15 15 15 15 16 16 17 18 19 19 20 20 20 21 21 21 21
5 5 4 3 4 4 5 7 7 8 8 9 9 10 11 11 11 12 13 14 14 15 16 16 16 16 17 17 17 18 19 19 19 19 20 20 21 21
5 4 3 3 3 3 4 5 5 6 7 7 8 9 11 11 11 12 13 13 14 14 15 16 16 17 17 18 18 18 18 19 19 20 20 20 21 21
5 5 4 4 4 4 4 4 4 5 6 7 8 9 10 10 11 12 13 13 14 15 15 16 17 17 17 18 18 18 19 19 20 20 21 21 21 22
5 4 4 4 4 5 4 4 5 6 7 8 8 9 9 10 11 12 13 14 15 16 17 17 17 17 18 18 18 19 19 20 20 20 21 22 22 23
5 5 5 5 4 4 5 5 6 7 8 9 9 10 11 11 12 12 13 14 14 15 16 17 17 18 18 18 19 19 20 21 21 22 22 23 23 24
6 6 6 6 6 6 6 6 7 8 9 10 11 12 12 13 14 14 15 15 16 17 17 18 19 19 20 20 21 21 21 22 23 23 24 24 25 26
7 6 7 7 8 8 8 9 10 11 12 13 13 14 14 15 16 16 17 18 18 18 19 20 20 21 22 22 23 23 24 24 25 25 26 26 27 28
9 8 9 9 10 10 11 12 13 14 14 15 15 16 16 17 17 18 19 19 20 21 22 23 23 24 24 24 25 25 26 27 27 28 28 29 29 30
11 11 11 11 12 14 15 15 16 17 17 18 18 18 19 19 20 20 21 21 22 22 22 23 24 25 26 27 27 28 28 29 29 30 31 31 31 32
13 13 14 15 16 16 17 17 18 19 20 20 21 21 21 22 22 23 22 23 23 24 24 25 26 27 27 28 29 29 30 31 32 32 33 33 34 34
15 16 17 17 18 19 20 20 21 21 22 22 23 23 24 24 24 24 25 26 26 26 27 28 28 29 30 31 31 32 32 33 34 34 34 35 35 36
Wind_Direction
266 264 263 261 258 257 257 257 257 256 256 255 255 255 256 257 258 258 257 257 258 259 259 259 258 257 257 258 258 257 258 259 260 261 261 260 258 259
266 265 262 260 258 257 258 258 257 256 256 255 256 256 255 255 257 259 259 260 259 259 259 260 261 261 262 261 260 259 259 260 262 263 264 263 263 262
268 264 262 260 258 257 257 258 257 255 255 255 258 258 257 257 259 261 262 260 258 259 261 262 261 262 263 263 262 260 260 261 261 264 263 264 266 263
269 264 262 259 258 257 256 256 256 255 256 256 256 257 257 258 259 261 262 262 259 260 260 261 262 262 263 263 263 262 262 262 261 261 262 263 264 265
270 265 261 259 256 256 255 254 255 255 255 254 255 257 256 257 257 259 260 259 259 259 259 261 262 262 262 262 263 263 264 264 262 262 262 262 264 265
269 265 262 259 255 254 253 252 253 254 254 253 256 260 257 258 259 259 259 259 259 260 259 260 260 261 261 261 262 262 262 263 263 263 264 264 264 264
269 264 262 258 255 252 251 250 251 253 253 255 259 259 259 260 261 261 261 261 261 261 262 262 261 261 261 262 262 261 262 263 264 264 264 264 265 265
274 267 264 258 255 253 250 250 252 252 254 256 257 260 259 261 261 262 261 260 262 263 264 264 262 262 262 262 260 261 262 263 264 264 264 265 266 266
288 278 272 266 261 257 252 252 251 251 254 255 257 256 258 259 260 259 258 258 260 263 265 266 266 265 264 261 258 259 260 261 262 263 264 265 265 267
301 287 277 270 264 259 254 252 251 250 250 253 253 254 254 256 257 256 255 256 258 260 263 266 267 265 263 259 257 257 261 262 262 263 265 265 266 268
305 299 287 272 263 259 255 250 246 247 250 251 253 250 250 252 254 255 256 257 258 261 263 265 267 267 266 262 261 261 262 264 265 265 266 267 268 269
312 306 291 275 267 261 255 247 246 249 247 247 248 247 248 252 255 256 256 257 259 262 263 264 267 269 269 268 267 267 266 267 267 266 267 268 270 271
317 311 300 285 267 265 262 253 250 248 243 241 246 250 253 257 257 258 259 260 261 262 263 265 267 268 268 269 270 269 268 267 267 267 269 269 270 270
322 324 314 300 283 284 274 258 253 252 250 250 256 256 257 260 260 259 261 262 263 263 265 265 267 267 268 268 269 269 267 265 266 268 269 270 271 273
337 337 328 316 303 301 294 286 280 266 261 259 261 261 262 264 262 262 265 265 266 267 267 266 268 268 269 270 270 269 269 267 268 270 270 271 273 274
357 353 345 324 309 303 296 287 282 276 273 272 274 270 270 272 268 266 267 268 269 269 268 268 269 270 271 271 272 272 271 270 273 273 273 274 275 276
348 343 332 324 311 296 290 287 281 281 281 280 279 276 276 277 275 272 272 274 274 273 273 272 272 271 270 272 273 273 273 274 275 276 277 277 278 279
333 332 328 326 320 305 297 293 290 289 290 290 286 284 284 280 276 275 276 277 275 275 275 274 274 274 273 273 273 273 274 274 275 278 279 279 280 281
323 320 320 317 314 308 302 296 293 292 290 291 288 285 285 284 283 280 278 277 277 277 276 276 276 276 276 276 276 276 276 277 278 279 280 281 281 282
319 314 312 308 306 305 303 299 297 296 294 292 290 288 287 285 285 283 282 280 278 278 278 277 278 278 278 277 278 279 279 279 280 280 281 281 282 282
318 312 307 304 301 300 299 297 297 297 295 294 291 288 287 286 285 285 283 282 282 281 280 279 279 280 280 280 280 280 280 280 279 280 281 281 282 282
315 311 306 303 301 299 297 294 293 293 292 291 291 289 287 286 285 284 284 283 283 282 282 282 282 281 282 283 283 283 281 281 280 281 282 282 283 283
311 308 305 302 300 298 296 295 294 292 291 291 290 289 288 286 285 284 284 284 283 283 283 282 283 282 282 283 283 284 284 283 282 282 282 283 284 284
Height
5750 5751 5752 5752 5753 5755 5756 5757 5759 5760 5761 5762 5763 5764 5764 5766 5766 5767 5768 5769 5770 5771 5772 5772 5773 5774 5775 5777 5778 5779 5780 5781 5781 5782 5783 5783 5784 5784
5743 5744 5745 5745 5747 5748 5749 5751 5752 5754 5755 5756 5757 5758 5758 5759 5760 5761 5762 5763 5763 5764 5765 5766 5767 5768 5769 5770 5771 5772 5773 5774 5775 5775 5776 5776 5777 5777
5736 5737 5738 5739 5740 5742 5743 5744 5746 5747 5749 5750 5750 5751 5752 5753 5754 5755 5756 5757 5757 5758 5759 5760 5761 5762 5763 5763 5764 5765 5766 5767 5768 5768 5769 5769 5770 5770
5730 5730 5732 5733 5734 5736 5737 5739 5740 5741 5743 5744 5745 5746 5747 5748 5749 5750 5750 5751 5751 5752 5753 5754 5755 5756 5756 5757 5758 5759 5759 5760 5761 5761 5762 5762 5763 5763
5724 5724 5726 5727 5729 5730 5732 5733 5735 5736 5737 5739 5739 5740 5741 5742 5743 5744 5744 5745 5746 5746 5747 5748 5749 5749 5750 5751 5751 5752 5753 5753 5754 5754 5755 5755 5756 5756
5719 5719 5720 5721 5723 5725 5726 5728 5729 5731 5732 5733 5734 5735 5736 5737 5737 5738 5739 5739 5740 5740 5741 5742 5742 5743 5744 5744 5745 5746 5746 5746 5747 5748 5748 5748 5749 5749
5714 5715 5715 5716 5718 5719 5721 5723 5724 5725 5727 5728 5729 5730 5731 5731 5732 5732 5733 5733 5734 5735 5735 5736 5736 5737 5737 5738 5738 5739 5740 5740 5741 5741 5741 5742 5742 5742
5711 5711 5712 5713 5714 5715 5717 5718 5719 5721 5722 5723 5724 5725 5725 5726 5726 5727 5727 5728 5729 5730 5730 5730 5730 5731 5731 5732 5732 5733 5733 5734 5734 5735 5735 5735 5735 5736
5709 5709 5709 5709 5710 5711 5712 5713 5715 5716 5717 5718 5719 5720 5720 5721 5722 5722 5722 5723 5724 5724 5724 5725 5725 5725 5725 5726 5726 5727 5728 5728 5728 5729 5729 5729 5729 5729
5707 5706 5706 5707 5707 5708 5708 5709 5710 5712 5713 5714 5715 5715 5716 5717 5717 5718 5718 5719 5719 5719 5720 5720 5720 5720 5720 5720 5721 5721 5722 5722 5722 5723 5723 5723 5723 5723
5705 5705 5705 5705 5705 5705 5706 5706 5707 5708 5709 5709 5710 5711 5712 5713 5713 5714 5714 5715 5715 5715 5715 5716 5715 5715 5715 5715 5715 5715 5716 5716 5716 5716 5717 5717 5716 5716
5704 5704 5703 5703 5703 5703 5704 5704 5704 5705 5706 5707 5707 5708 5709 5709 5709 5710 5710 5711 5711 5711 5711 5711 5711 5710 5710 5710 5710 5709 5710 5710 5710 5710 5710 5710 5710 5709
5703 5703 5702 5702 5702 5702 5702 5702 5702 5703 5703 5704 5704 5705 5705 5706 5706 5706 5706 5706 5707 5707 5707 5707 5706 5706 5706 5705 5705 5704 5704 5704 5704 5704 5703 5704 5703 5703
5703 5702 5702 5701 5701 5701 5701 5701 5701 5701 5701 5701 5702 5702 5702 5702 5702 5703 5703 5702 5702 5703 5702 5702 5701 5701 5701 5700 5700 5699 5698 5698 5698 5698 5698 5697 5697 5696
5703 5702 5701 5701 5700 5700 5700 5699 5699 5699 5699 5699 5699 5699 5699 5699 5699 5699 5699 5699 5698 5698 5698 5697 5697 5696 5696 5695 5695 5694 5693 5693 5692 5692 5692 5691 5691 5690
5703 5702 5701 5700 5699 5699 5698 5698 5697 5697 5697 5697 5697 5696 5696 5695 5695 5695 5695 5694 5694 5694 5693 5692 5692 5691 5691 5690 5690 5689 5688 5687 5687 5686 5685 5685 5684 5683
5703 5702 5700 5699 5698 5698 5697 5696 5696 5695 5695 5694 5694 5693 5693 5692 5691 5691 5690 5690 5689 5689 5688 5687 5687 5686 5685 5685 5684 5683 5682 5681 5680 5680 5679 5678 5677 5676
5702 5701 5700 5698 5697 5696 5695 5694 5694 5693 5692 5691 5691 5690 5689 5688 5688 5687 5686 5685 5684 5684 5683 5682 5681 5680 5680 5679 5678 5677 5676 5675 5674 5673 5672 5670 5670 5668
5701 5700 5699 5697 5696 5695 5694 5693 5692 5690 5689 5688 5687 5686 5685 5684 5683 5682 5681 5680 5679 5678 5677 5676 5675 5674 5673 5673 5672 5670 5669 5668 5666 5665 5664 5662 5661 5660
5700 5699 5697 5696 5695 5693 5692 5690 5689 5687 5686 5684 5683 5682 5680 5679 5678 5677 5675 5674 5673 5672 5671 5670 5669 5667 5666 5665 5664 5663 5661 5659 5658 5656 5655 5653 5652 5650
5698 5697 5695 5693 5692 5690 5688 5687 5685 5683 5681 5680 5678 5677 5675 5673 5672 5671 5669 5668 5666 5665 5664 5663 5661 5660 5658 5657 5656 5655 5653 5651 5649 5647 5645 5643 5642 5640
5696 5694 5692 5690 5688 5686 5684 5682 5680 5678 5676 5674 5672 5671 5669 5667 5666 5664 5662 5661 5659 5658 5656 5655 5653 5652 5650 5648 5646 5645 5643 5642 5639 5637 5635 5633 5631 5629
5693 5690 5688 5686 5683 5681 5679 5677 5674 5672 5670 5668 5666 5664 5662 5660 5659 5657 5655 5653 5651 5650 5648 5646 5644 5643 5641 5639 5637 5635 5633 5631 5628 5627 5625 5623 5620 5618